Home   Weather   25°41'N, 100°16'W   Past weeks
Flag for Mexico

Past Weather in 25°41'N, 100°16'W, Mexico — Yesterday and Last 2 Weeks

Now
90 °F

Passing clouds.


Feels Like: 95 °F
Forecast: 96 / 72 °F
Wind: 9 mph from East

Location: Aerop. Internacional Monterrey - N. L.

Current Time: Jun 17, 2019 at 9:55:54 pm

Latest Report: Jun 17, 2019 at 8:40 pm


Visibility: 12 mi

Pressure: 29.89 "Hg

Humidity: 52%

Dew Point: 70 °F

Location of 25°41'N, 100°16'WLocation

Past Weather in 25°41'N, 100°16'W — Graph

°F

25°41'N, 100°16'W Temperature Yesterday

Maximum temperature yesterday: 95 °F (at 6:40 pm)
Minimum temperature yesterday: 75 °F (at 5:40 am)
Average temperature yesterday: 86 °F

High & Low Weather Summary for the Past Weeks

 TemperatureHumidityPressure
High106 °F (Jun 8, 3:40 pm)94% (Jun 10, 10:20 pm)30.26 "Hg (Jun 10, 10:20 pm)
Low70 °F (Jun 12, 6:50 am)12% (Jun 8, 6:40 pm)29.74 "Hg (Jun 7, 6:40 pm)
Average86 °F55%29.94 "Hg
* Reported Jun 2 7:40 pm — Jun 17 7:40 pm, 25°41'N, 100°16'W. Weather by CustomWeather, © 2019

Note: Actual official high and low records may vary slightly from our data, if they occured in-between our weather recording intervals... More about our weather records

Advertising

25°41'N, 100°16'W Weather History for the Previous 24 Hours

Scroll right to see more
 ConditionsComfort  
Time TempWeatherWind HumidityBarometerVisibility
7:40 pm
Mon, Jun 17
91 °FPartly sunny.5 mph46%29.85 "Hg10 mi
6:40 pm88 °FPartly sunny.6 mph55%29.86 "Hg8 mi
5:40 pm86 °FBroken clouds.6 mph52%29.89 "Hg10 mi
4:40 pm91 °FBroken clouds.7 mph46%29.89 "Hg10 mi
3:40 pm93 °FPartly sunny.15 mph44%29.89 "Hg8 mi
2:40 pm91 °FPartly sunny.16 mph49%29.90 "Hg8 mi
1:40 pm91 °FScattered clouds.12 mph49%29.92 "Hg8 mi
12:40 pm90 °FPassing clouds.12 mph52%29.92 "Hg8 mi
11:40 am82 °FSunny.5 mph66%29.92 "Hg8 mi
10:40 am81 °FBroken clouds.10 mph70%29.92 "Hg6 mi
9:40 am79 °FMostly cloudy.No wind79%29.91 "Hg6 mi
8:40 am77 °FBroken clouds.8 mph83%29.89 "Hg6 mi
7:40 am75 °FOvercast.6 mph89%29.89 "Hg4 mi
6:40 am75 °FPassing clouds.5 mph89%29.88 "Hg6 mi
11:40 pm
Sun, Jun 16
82 °FClear.9 mph66%29.88 "Hg10 mi
10:40 pm86 °FClear.9 mph62%29.85 "Hg10 mi
9:40 pm88 °FClear.6 mph49%29.81 "Hg10 mi
Weather by CustomWeather, © 2019

See weather overview